Temperature
20 21 20 20 20 20 19 19 18 19 18 18 18 18 18 17 16 16 15 14 14 14 13 13 13 13 13 13 13 13 12 12 12 12 12 12 12 12 12 12 12 12 12 12
19 20 20 19 19 19 19 19 19 18 18 18 18 17 17 16 15 15 14 14 13 13 13 13 13 12 12 12 12 12 12 12 12 11 11 11 11 11 11 11 11 11 11 11
18 19 19 17 18 19 19 18 18 17 17 17 17 16 16 15 14 14 13 13 13 12 12 12 12 12 12 12 12 11 11 11 11 11 11 11 10 10 10 10 10 10 10 11
17 18 16 17 19 19 18 18 18 17 17 16 16 15 14 14 13 13 12 12 12 11 11 11 11 11 11 11 11 11 11 11 10 10 10 10 10 10 10 10 10 10 10 10
17 16 17 17 18 18 17 16 17 17 16 16 15 14 13 13 12 12 11 11 11 11 11 11 11 11 11 11 10 10 10 10 10 10 10 10 9 9 9 9 9 9 9 9
16 16 16 16 17 17 17 15 16 16 16 15 15 13 13 12 12 11 11 10 10 10 10 10 10 10 10 10 10 10 9 9 9 9 9 9 9 9 9 8 8 9 9 9
15 15 15 16 16 16 15 14 15 15 15 14 14 13 13 12 11 11 10 10 9 9 9 9 9 10 10 9 9 9 9 9 9 9 9 9 8 8 8 8 8 8 8 8
15 14 14 15 15 15 14 15 15 14 14 13 13 12 12 11 11 10 10 9 9 9 9 9 9 9 9 9 8 8 8 8 8 8 8 8 8 8 8 8 8 7 7 7
14 14 15 15 15 14 14 14 14 13 13 12 12 11 11 10 10 9 9 9 8 8 8 8 8 8 8 8 8 8 8 7 7 7 7 7 7 7 7 7 7 7 7 7
14 15 14 14 14 14 13 13 13 12 12 11 11 10 10 10 9 9 8 8 8 8 7 7 7 7 7 7 7 7 7 7 6 6 6 6 6 6 6 6 6 6 6 6
14 14 14 13 13 13 12 12 12 11 11 11 10 10 9 9 8 8 8 7 7 7 7 6 6 6 6 6 6 6 6 6 6 5 5 5 5 5 5 5 5 5 5 5
13 13 13 12 12 12 11 11 11 11 10 10 10 9 9 8 8 7 7 7 6 6 6 6 6 5 5 5 5 5 5 5 5 5 5 5 5 5 5 5 5 5 5 4
12 12 12 12 11 11 11 11 10 10 10 9 9 9 8 8 7 7 7 6 6 6 5 5 5 5 5 5 5 5 5 4 4 4 4 4 4 4 4 4 4 4 4 4
12 11 11 11 11 10 10 10 10 10 9 9 8 8 7 7 6 6 6 6 5 5 5 4 4 4 4 4 4 4 4 4 4 4 4 4 3 3 3 3 3 3 3 4
11 11 10 10 10 10 9 9 9 9 8 8 8 7 7 6 6 5 5 5 5 4 4 4 4 4 4 4 4 4 4 3 3 3 3 3 3 3 3 3 3 3 3 3
10 10 10 10 9 9 9 9 8 8 8 7 7 7 6 6 6 5 5 5 4 4 4 4 4 4 3 3 3 3 3 3 3 3 3 2 2 2 2 2 2 2 2 2
10 9 9 9 9 9 8 8 8 7 7 7 6 6 6 5 5 5 4 4 4 4 4 3 3 3 3 3 3 3 3 2 2 2 2 2 2 2 2 2 2 2 2 2
9 9 9 9 9 8 8 8 7 7 6 6 6 5 5 5 4 4 4 4 4 3 3 3 3 3 3 3 2 2 2 2 2 2 1 1 1 1 1 1 1 1 1 1
8 8 8 8 8 8 7 7 7 6 6 6 5 5 4 4 4 4 4 3 3 3 3 3 3 3 2 2 2 2 2 2 1 1 1 1 1 1 1 1 1 1 1 1
8 7 7 7 7 7 6 6 6 6 5 5 5 4 4 4 4 3 3 3 3 3 3 2 2 2 2 2 2 1 1 1 1 1 1 1 1 0 0 0 0 0 0 0
7 7 7 6 6 6 6 6 5 5 5 4 4 4 3 3 3 3 3 3 2 2 2 2 2 2 2 2 1 1 1 1 1 1 0 0 0 -0 -0 -0 -0 -0 -0 -0
6 6 6 6 6 5 5 5 5 4 4 4 3 3 3 3 3 2 2 2 2 2 2 2 2 1 1 1 1 1 0 0 0 0 0 -0 -0 -0 -1 -1 -1 -1 -0 -1
6 5 5 5 5 5 5 4 4 4 4 3 3 3 3 3 2 2 2 2 2 2 2 1 1 1 1 1 1 0 0 0 -0 -0 -0 -1 -1 -1 -1 -1 -1 -1 -1 -1
5 5 5 5 4 4 4 4 3 3 3 3 3 3 2 2 2 2 2 1 1 1 1 1 1 1 1 1 0 0 -0 -0 -0 -1 -1 -1 -1 -1 -1 -1 -1 -1 -1 -1
4 4 4 4 4 4 3 3 3 3 3 3 2 2 2 2 2 1 1 1 1 1 1 1 0 0 0 0 -0 -0 -1 -1 -1 -1 -1 -1 -1 -1 -1 -1 -1 -1 -2 -2
4 4 4 3 3 3 3 3 2 2 2 2 2 2 2 2 1 1 1 1 0 0 0 -0 -0 -0 -0 -1 -1 -1 -1 -1 -1 -1 -1 -1 -2 -2 -2 -2 -2 -2 -2 -2
3 3 3 3 3 3 2 2 2 2 2 2 1 1 1 1 1 1 0 0 -0 -0 -0 -0 -1 -1 -1 -1 -1 -1 -2 -2 -2 -2 -2 -2 -2 -2 -2 -2 -2 -2 -2 -2
Wind_Speed
10 8 7 6 6 6 7 7 7 6 3 1 2 2 3 4 3 4 4 4 4 4 3 2 2 1 1 1 1 1 1 1 1 1 1 2 2 2 2 2 2 2 2 2
10 9 8 9 9 8 9 8 8 6 4 3 3 3 3 4 4 4 4 3 4 4 4 3 3 2 2 2 1 1 1 1 1 1 1 2 2 2 2 2 2 2 2 2
8 8 7 8 7 7 5 5 5 5 3 2 3 4 3 3 3 3 4 5 4 4 4 4 3 2 1 2 2 2 2 2 2 2 2 2 2 2 2 2 2 2 3 3
6 7 8 1 2 1 2 2 2 1 1 1 2 3 3 4 4 4 4 5 5 5 4 4 4 3 2 2 2 2 2 3 3 2 1 1 1 1 1 1 1 1 1 2
5 6 6 3 1 1 2 3 2 1 1 1 2 3 3 4 4 3 3 4 4 4 4 4 4 4 3 3 3 3 3 3 3 2 1 1 1 1 1 1 1 1 1 2
6 6 4 1 2 3 2 2 2 1 1 1 1 1 0 2 3 4 3 3 3 3 4 4 4 4 3 3 3 3 3 2 2 1 1 1 1 1 1 1 1 1 1 2
8 7 3 2 1 2 2 0 3 3 2 1 0 0 1 2 3 3 3 3 3 3 3 4 4 3 3 3 3 2 2 2 2 2 2 2 1 1 1 1 2 2 2 2
5 5 3 2 0 1 2 4 4 4 4 3 3 3 3 3 3 3 3 3 3 3 3 4 4 3 3 3 3 3 3 2 2 2 2 2 2 2 2 2 2 2 2 2
2 1 1 1 1 3 4 4 4 4 4 3 2 2 2 2 2 3 3 3 3 2 3 3 4 4 4 3 3 2 2 2 2 3 3 2 2 2 2 2 1 2 2 2
3 1 2 2 2 3 4 3 3 3 3 2 2 2 2 2 2 2 2 2 2 2 2 3 3 4 3 3 3 2 2 2 2 2 2 2 2 2 2 1 1 2 2 2
5 3 3 3 3 4 3 2 2 3 2 2 2 2 2 1 1 2 2 2 2 2 2 2 3 3 3 3 3 2 2 2 2 1 1 2 2 2 2 2 2 1 2 2
4 3 3 3 3 3 3 2 2 3 2 2 2 2 2 2 2 2 2 2 2 2 2 2 3 3 3 3 3 2 2 2 1 1 2 2 2 2 3 2 3 3 2 2
3 3 2 2 2 2 2 2 2 2 1 2 2 2 2 1 2 2 2 2 2 2 2 3 3 3 3 3 3 2 2 2 2 2 1 1 2 1 2 2 2 2 2 3
2 2 2 2 2 2 2 1 2 2 1 1 1 2 2 2 1 2 2 2 2 2 2 3 3 3 3 3 3 3 2 2 2 1 1 1 1 2 1 1 2 2 2 3
3 3 2 2 2 1 1 1 1 1 2 2 2 2 1 1 1 1 1 2 2 2 2 2 3 3 4 3 3 2 2 1 1 1 1 1 1 1 1 2 2 2 2 3
3 2 2 3 2 2 1 0 1 1 1 1 1 1 1 1 1 1 2 1 1 1 1 2 2 3 3 3 2 2 1 2 2 1 1 1 1 1 1 2 2 2 2 2
3 3 4 3 3 2 1 1 1 0 0 1 1 1 1 1 1 2 2 1 1 1 1 2 2 2 2 2 2 1 1 1 3 2 1 1 1 1 2 2 2 2 2 2
3 3 3 3 2 1 1 1 0 0 1 1 1 1 1 1 1 1 2 2 2 2 2 2 2 2 2 2 2 2 2 1 1 1 2 2 2 2 2 2 2 2 2 2
1 1 1 2 1 1 0 0 1 1 2 2 2 2 1 1 2 2 2 2 1 1 2 3 3 2 2 3 3 2 2 2 2 2 2 2 2 2 2 2 2 2 3 2
1 1 0 0 0 1 1 1 2 2 2 2 2 2 2 2 2 2 2 1 2 2 3 3 2 2 2 2 4 2 2 2 2 2 2 2 2 2 2 2 2 2 2 2
1 1 1 1 1 1 2 2 2 3 3 2 2 1 1 1 2 1 1 1 2 3 3 3 2 1 2 3 3 2 2 2 2 2 2 2 2 2 2 2 2 3 3 3
1 1 1 1 2 2 2 2 2 3 3 2 1 1 1 1 1 2 1 1 2 3 2 1 1 2 3 3 2 2 2 2 2 2 2 2 2 2 2 2 2 3 3 3
1 1 1 1 1 2 2 2 2 3 2 2 1 1 1 1 1 1 1 2 2 2 2 1 2 3 4 2 2 2 2 2 2 2 2 2 2 2 2 3 2 3 3 3
2 1 1 1 2 2 2 2 2 2 2 2 1 1 1 1 1 1 1 2 3 3 2 2 2 3 3 2 2 2 2 2 2 2 2 2 2 2 2 2 3 3 3 4
1 1 1 2 1 1 2 2 2 2 2 1 1 1 1 1 1 1 1 1 2 2 2 2 3 4 2 2 2 2 2 2 3 3 2 2 2 3 3 3 3 3 3 4
1 1 1 1 1 1 2 2 1 1 1 1 1 1 1 1 1 1 1 1 2 3 2 1 2 2 2 2 2 2 2 3 3 3 3 3 3 3 3 3 4 4 3 4
1 1 1 1 1 1 1 1 1 1 1 1 1 1 1 1 1 1 1 1 1 2 2 2 1 1 1 2 2 2 2 2 2 2 3 2 2 3 3 4 3 3 4 4
Wind_Direction
282 286 290 287 268 256 251 256 264 279 277 336 63 71 75 77 67 63 60 48 41 33 34 37 60 94 100 88 85 103 113 95 47 38 23 23 50 61 55 29 8 2 4 21
279 271 265 274 273 258 248 253 258 269 286 3 14 45 63 68 59 44 46 40 33 24 21 16 22 46 62 57 53 81 102 99 82 60 50 43 36 60 54 27 13 8 3 11
275 273 269 260 264 255 244 247 255 264 279 349 6 37 44 52 54 41 27 24 25 22 16 7 6 7 66 77 56 43 58 64 70 59 46 31 18 36 45 24 29 24 7 359
274 267 252 240 38 340 272 285 298 298 341 347 24 61 61 59 57 41 29 23 17 10 11 9 4 10 45 64 67 49 45 52 56 59 56 40 13 354 3 28 32 9 354 341
266 263 259 236 316 315 271 275 313 298 352 28 74 88 59 50 59 49 31 25 16 359 0 9 10 16 35 46 53 42 35 47 41 32 33 37 17 340 5 28 359 333 335 320
267 265 261 334 47 347 296 239 35 4 328 60 110 241 283 50 52 47 37 29 22 5 8 17 13 23 41 46 51 38 31 44 40 25 26 26 0 345 6 358 328 330 307 292
256 259 260 5 21 311 251 346 40 16 15 44 337 1 78 64 60 53 40 32 33 25 19 17 8 19 33 38 41 33 29 39 36 30 31 27 15 22 16 349 328 328 329 325
247 246 251 54 359 316 5 31 32 27 23 42 49 56 84 78 66 63 49 40 42 35 25 20 16 25 34 23 21 33 36 41 43 35 24 18 27 23 17 5 348 321 317 327
258 248 76 128 27 1 7 6 18 22 28 49 41 37 72 77 65 57 43 41 44 43 33 31 26 29 31 12 10 29 38 32 36 40 35 30 32 35 31 28 12 333 334 337
278 279 339 354 5 10 13 3 17 34 35 34 37 44 56 66 55 47 33 35 33 33 29 29 32 30 16 3 5 32 38 32 28 34 35 31 24 29 33 25 8 338 337 339
268 283 315 334 353 4 4 10 21 30 37 30 36 35 40 35 32 34 28 36 35 32 22 28 32 32 23 11 16 28 27 28 20 22 34 34 30 31 42 46 44 4 348 344
264 272 290 309 351 6 360 5 23 29 28 39 47 37 27 17 31 31 31 38 40 32 23 27 30 26 25 17 19 19 11 10 14 28 33 26 21 19 31 34 36 34 34 4
283 300 305 311 336 350 346 358 16 33 30 30 49 55 43 51 49 42 36 37 37 34 34 36 30 29 30 22 16 16 13 9 16 22 27 13 2 0 358 8 23 19 16 1
305 299 286 293 300 322 340 3 18 37 54 61 61 72 73 65 56 41 29 37 50 48 43 38 28 22 20 20 16 9 11 9 14 15 13 2 344 337 333 338 342 345 352 349
260 262 252 269 282 302 331 352 5 49 67 67 71 77 87 86 71 45 56 60 61 57 47 34 23 18 17 18 15 14 18 19 23 15 354 332 321 329 334 344 350 347 346 340
252 250 250 256 253 269 272 273 316 9 70 86 83 71 88 93 90 94 88 76 72 52 43 36 24 18 18 13 6 11 21 10 10 8 341 332 346 350 342 340 340 338 341 347
229 237 249 254 240 247 249 261 275 299 46 74 95 111 101 93 87 81 75 70 55 58 60 57 49 24 15 9 5 9 12 351 346 340 328 341 350 346 341 338 333 324 327 342
239 247 259 267 254 251 244 230 222 88 89 77 71 91 101 104 96 77 63 54 38 38 54 63 49 20 8 5 11 8 359 340 329 327 337 341 336 341 339 331 324 328 338 343
256 249 253 260 272 265 260 120 101 96 95 97 94 92 81 66 59 56 56 49 22 32 38 49 32 10 3 9 11 7 352 338 335 338 337 323 327 335 332 333 335 341 341 342
73 45 25 333 90 106 73 80 95 99 99 100 92 82 69 63 63 51 36 25 38 52 37 26 4 350 10 13 2 347 340 333 332 333 334 331 332 337 338 339 336 334 333 330
129 110 110 104 90 90 89 95 107 111 103 101 102 94 77 58 50 50 30 7 39 50 31 14 3 11 19 4 349 338 338 332 329 327 330 330 331 334 335 336 334 329 327 327
130 120 111 99 105 103 96 96 101 106 101 95 91 81 68 48 26 11 11 39 45 43 28 358 350 0 3 355 326 322 321 324 323 325 329 327 327 328 330 332 328 327 325 321
121 112 111 109 114 110 102 107 111 110 112 112 102 82 62 38 19 353 348 23 47 27 4 313 330 342 349 344 321 317 315 317 319 321 324 328 326 323 322 324 325 323 320 317
105 105 108 113 114 117 116 106 104 102 103 101 99 89 64 37 24 31 45 27 13 360 345 328 327 327 338 333 318 314 313 313 311 313 313 315 320 320 317 316 314 310 306 305
124 133 136 136 138 133 123 114 110 111 107 97 101 88 68 67 63 42 32 13 350 349 345 338 335 336 341 319 319 317 314 309 314 322 322 320 320 318 315 313 310 309 309 306
106 103 98 117 120 118 120 125 132 138 133 114 80 72 71 68 67 64 56 14 347 336 334 330 329 332 335 323 315 309 307 311 317 318 314 317 314 314 315 319 319 318 317 314
120 118 118 124 115 106 112 124 131 130 126 118 89 64 68 63 53 35 23 10 357 351 343 343 337 337 330 327 328 327 325 325 324 318 314 313 314 313 313 314 320 320 320 318
Height
1490 1487 1487 1489 1490 1490 1492 1493 1498 1496 1497 1496 1496 1497 1499 1500 1502 1503 1504 1505 1505 1505 1505 1505 1506 1506 1506 1506 1507 1507 1507 1507 1507 1508 1508 1508 1509 1509 1510 1510 1510 1511 1511 1512
1492 1487 1487 1490 1488 1488 1490 1490 1492 1494 1497 1495 1496 1497 1499 1500 1502 1503 1503 1504 1504 1504 1504 1504 1505 1505 1504 1504 1505 1505 1505 1506 1506 1506 1506 1506 1507 1507 1507 1508 1508 1508 1508 1509
1495 1487 1489 1495 1488 1487 1488 1488 1491 1495 1497 1495 1496 1498 1499 1501 1502 1503 1503 1504 1504 1504 1504 1504 1503 1503 1503 1503 1503 1503 1504 1504 1504 1504 1504 1505 1505 1505 1506 1506 1506 1506 1506 1506
1496 1495 1502 1493 1484 1485 1487 1489 1489 1491 1493 1495 1497 1499 1500 1501 1502 1502 1503 1503 1503 1503 1503 1503 1502 1502 1502 1502 1502 1502 1502 1502 1502 1502 1503 1503 1503 1504 1504 1504 1503 1503 1503 1504
1496 1497 1493 1489 1486 1486 1489 1491 1490 1491 1493 1495 1496 1498 1500 1501 1501 1502 1502 1502 1502 1502 1502 1501 1500 1500 1500 1500 1500 1500 1500 1500 1500 1501 1501 1501 1501 1501 1502 1502 1502 1502 1501 1501
1496 1499 1499 1493 1488 1487 1490 1494 1492 1492 1493 1494 1495 1499 1500 1500 1501 1501 1501 1501 1501 1500 1500 1499 1498 1498 1498 1498 1498 1498 1498 1498 1498 1499 1499 1499 1499 1499 1500 1500 1500 1499 1499 1499
1497 1497 1495 1491 1489 1488 1497 1497 1493 1492 1493 1494 1495 1497 1499 1499 1499 1500 1500 1500 1499 1499 1498 1497 1497 1497 1496 1496 1496 1497 1497 1497 1497 1497 1497 1497 1497 1497 1497 1497 1497 1497 1497 1497
1495 1498 1500 1492 1491 1493 1494 1492 1492 1493 1494 1494 1495 1496 1496 1497 1498 1498 1498 1498 1498 1497 1496 1496 1495 1495 1494 1495 1495 1495 1495 1495 1495 1495 1495 1495 1494 1494 1495 1495 1495 1494 1494 1494
1494 1496 1492 1491 1492 1493 1492 1493 1493 1494 1494 1494 1495 1495 1496 1496 1497 1497 1497 1496 1496 1496 1495 1494 1494 1493 1493 1493 1493 1493 1493 1493 1493 1493 1492 1492 1492 1491 1492 1492 1492 1492 1492 1491
1491 1490 1491 1491 1492 1492 1493 1493 1493 1494 1494 1494 1494 1495 1495 1495 1495 1495 1495 1495 1494 1494 1494 1493 1492 1492 1492 1491 1491 1491 1490 1490 1490 1490 1490 1490 1490 1489 1490 1490 1490 1490 1489 1489
1491 1491 1491 1491 1492 1492 1492 1492 1493 1493 1493 1494 1493 1493 1493 1494 1494 1494 1494 1494 1493 1493 1493 1492 1491 1490 1490 1490 1490 1489 1489 1489 1489 1488 1488 1488 1488 1488 1488 1488 1488 1488 1487 1487
1491 1491 1492 1492 1492 1492 1492 1492 1492 1492 1492 1492 1492 1492 1492 1493 1493 1493 1493 1492 1492 1491 1491 1490 1490 1489 1489 1489 1488 1488 1487 1487 1487 1487 1486 1486 1486 1486 1486 1486 1486 1486 1485 1485
1489 1489 1490 1490 1491 1491 1491 1491 1491 1491 1491 1491 1491 1491 1491 1491 1491 1491 1491 1491 1491 1490 1490 1489 1489 1488 1488 1487 1487 1487 1486 1486 1485 1485 1485 1485 1485 1485 1484 1484 1484 1483 1483 1482
1487 1488 1488 1489 1489 1490 1490 1489 1489 1489 1490 1490 1490 1490 1490 1490 1490 1490 1490 1490 1489 1489 1489 1488 1488 1487 1487 1486 1486 1485 1485 1484 1484 1484 1484 1483 1483 1483 1483 1482 1481 1480 1480 1479
1486 1486 1487 1487 1488 1488 1488 1488 1488 1488 1488 1488 1488 1488 1488 1488 1489 1489 1489 1488 1488 1488 1487 1487 1487 1486 1486 1485 1484 1484 1483 1483 1483 1482 1482 1481 1481 1481 1480 1480 1479 1478 1477 1476
1484 1484 1485 1486 1486 1486 1486 1486 1486 1486 1486 1486 1487 1487 1487 1487 1487 1487 1487 1487 1486 1486 1485 1485 1485 1485 1484 1484 1483 1482 1482 1482 1481 1480 1480 1479 1479 1479 1478 1477 1477 1476 1475 1474
1481 1481 1482 1483 1483 1484 1484 1484 1485 1485 1485 1485 1485 1485 1485 1485 1485 1485 1485 1485 1485 1484 1484 1484 1483 1483 1483 1482 1481 1481 1480 1480 1480 1479 1478 1478 1477 1477 1476 1475 1475 1474 1473 1472
1478 1479 1480 1481 1481 1481 1482 1482 1483 1483 1483 1483 1483 1483 1483 1484 1484 1484 1484 1484 1483 1483 1483 1482 1482 1482 1481 1481 1480 1479 1479 1478 1478 1477 1477 1476 1475 1475 1474 1473 1472 1472 1471 1470
1475 1476 1477 1478 1478 1479 1480 1480 1481 1481 1482 1482 1482 1482 1482 1483 1483 1483 1482 1482 1482 1481 1481 1481 1480 1480 1479 1479 1478 1477 1477 1476 1476 1475 1475 1474 1473 1473 1472 1471 1470 1469 1468 1467
1474 1475 1475 1476 1477 1477 1478 1479 1479 1480 1480 1480 1481 1481 1481 1482 1482 1481 1481 1481 1481 1480 1480 1479 1478 1478 1477 1477 1476 1476 1475 1474 1473 1473 1472 1472 1471 1470 1469 1469 1468 1467 1466 1465
1473 1473 1474 1475 1475 1476 1477 1477 1478 1478 1479 1479 1480 1480 1480 1480 1480 1480 1479 1479 1479 1478 1478 1477 1477 1476 1475 1475 1474 1474 1473 1472 1472 1471 1470 1470 1469 1468 1467 1466 1465 1464 1463 1462
1472 1472 1473 1474 1474 1475 1476 1476 1477 1477 1477 1478 1479 1479 1479 1479 1479 1478 1478 1478 1477 1477 1476 1476 1475 1474 1474 1473 1472 1472 1471 1471 1470 1469 1468 1468 1467 1466 1465 1464 1463 1462 1461 1459
1471 1472 1472 1473 1473 1474 1474 1475 1475 1476 1476 1477 1477 1478 1477 1477 1477 1477 1476 1476 1475 1475 1474 1474 1473 1473 1472 1471 1471 1470 1469 1469 1468 1467 1466 1465 1464 1463 1462 1461 1460 1459 1458 1456
1470 1471 1471 1472 1472 1473 1473 1474 1474 1475 1476 1476 1477 1477 1476 1476 1476 1475 1475 1474 1474 1473 1472 1471 1471 1470 1470 1469 1468 1468 1467 1466 1465 1464 1463 1463 1462 1461 1459 1458 1457 1456 1455 1453
1469 1469 1470 1471 1471 1472 1472 1473 1473 1474 1475 1475 1475 1475 1475 1475 1474 1473 1473 1472 1471 1471 1470 1469 1469 1468 1467 1466 1466 1465 1464 1463 1463 1462 1461 1460 1459 1458 1456 1455 1454 1452 1451 1450
1468 1469 1469 1469 1470 1471 1471 1472 1472 1473 1473 1474 1474 1474 1474 1473 1473 1472 1471 1470 1469 1469 1468 1467 1466 1466 1465 1464 1463 1462 1462 1461 1460 1459 1458 1457 1456 1455 1453 1452 1451 1449 1448 1446
1467 1467 1468 1469 1469 1470 1470 1470 1471 1471 1472 1472 1472 1472 1472 1471 1471 1470 1469 1468 1467 1466 1465 1465 1464 1463 1462 1461 1460 1460 1459 1458 1457 1456 1455 1454 1453 1451 1450 1449 1447 1446 1444 1443